Weather History for Pompano Beach, FL

Change the Weather History Date:

Friday, May 10, 2013

  Actual Average Record
Temperature  
Mean Temperature 78 °F -  
Max Temperature 86 °F 87 °F 95 °F (1998)
Min Temperature 73 °F 68 °F 56 °F (1960)
Cooling Degree Days 14    
Growing Degree Days 28 (Base 50)    
Moisture  
Dew Point 72 °F    
Average Humidity 78    
Maximum Humidity 93    
Minimum Humidity 56    
Precipitation  
Precipitation 0.10 in - - ()
Sea Level Pressure  
Sea Level Pressure 30.09 in    
Wind  
Wind Speed 8 mph (SE)    
Max Wind Speed 16 mph    
Max Gust Speed -    
Visibility 10 miles    
Events      
Averages and records for this station are not official NWS values.
T = Trace of Precipitation, MM = Missing Value Source: NWS Daily Summary

Daily Weather History Graph

Daily Weather History Graph

Search for Another Location

Airport:

Trip Planner

Search our weather history database for the weather conditions in past years. The results will help you decide how hot, cold, wet, or windy it might be!

Date:

Astronomy

May. 10, 2013 Rise Set
Actual Time 6:36 AM EDT 7:57 PM EDT
Civil Twilight 6:11 AM EDT 8:22 PM EDT
Nautical Twilight 5:42 AM EDT 8:51 PM EDT
Astronomical Twilight 5:11 AM EDT 9:22 PM EDT
Moon 7:00 AM EDT (5/10) 8:43 PM EDT (5/10)
Length of Visible Light 14h 10m
Length of Day
13h 20m
New Moon, 0% of the Moon is Illuminated
May 10
New Moon
May 18
First Quarter
May 25
Full
May 31
Last Quarter
Jun 8
New

Hourly Weather History & Observations

Time (EDT) Temp. Heat Index Dew Point Humidity Pressure Visibility Wind Dir Wind Speed Gust Speed Precip Events Conditions
12:53 AM 79.0 °F - 73.9 °F 84% 30.14 in 10.0 mi East 6.9 mph - N/A   Scattered Clouds
1:15 AM 78.8 °F - 73.4 °F 83% 30.13 in 10.0 mi SE 9.2 mph - N/A   Mostly Cloudy
1:29 AM 78.8 °F - 73.4 °F 83% 30.12 in 10.0 mi ESE 8.1 mph - N/A   Mostly Cloudy
1:53 AM 78.1 °F - 72.0 °F 81% 30.11 in 10.0 mi East 5.8 mph - N/A   Mostly Cloudy
2:04 AM 78.8 °F - 71.6 °F 78% 30.10 in 10.0 mi East 5.8 mph - N/A   Mostly Cloudy
2:23 AM 78.8 °F - 73.4 °F 83% 30.10 in 10.0 mi ESE 5.8 mph - N/A   Overcast
2:53 AM 78.1 °F - 72.0 °F 81% 30.10 in 10.0 mi East 5.8 mph - N/A   Partly Cloudy
3:53 AM 78.1 °F - 73.0 °F 84% 30.08 in 10.0 mi SE 11.5 mph - N/A   Mostly Cloudy
4:01 AM 78.8 °F - 71.6 °F 78% 30.08 in 10.0 mi SE 11.5 mph - N/A   Mostly Cloudy
4:53 AM 73.9 °F - 70.0 °F 87% 30.09 in 10.0 mi SSE 4.6 mph - 0.10 in   Partly Cloudy
5:53 AM 73.9 °F - 71.1 °F 91% 30.09 in 10.0 mi SSE 4.6 mph - N/A   Clear
6:53 AM 73.0 °F - 71.1 °F 93% 30.08 in 10.0 mi South 3.5 mph - N/A   Clear
8:53 AM 79.0 °F - 70.0 °F 74% 30.10 in 10.0 mi ESE 5.8 mph - N/A   Clear
9:53 AM 81.0 °F 84.4 °F 70.0 °F 69% 30.12 in 10.0 mi SE 12.7 mph - N/A   Partly Cloudy
10:53 AM 82.0 °F 85.9 °F 70.0 °F 67% 30.12 in 10.0 mi SE 8.1 mph - N/A   Clear
11:53 AM 84.0 °F 86.5 °F 66.9 °F 56% 30.11 in 10.0 mi ESE 9.2 mph - N/A   Partly Cloudy
12:53 PM 84.9 °F 89.4 °F 70.0 °F 61% 30.09 in 10.0 mi SE 9.2 mph - N/A   Partly Cloudy
1:53 PM 84.9 °F 90.1 °F 71.1 °F 63% 30.09 in 10.0 mi SE 10.4 mph - N/A   Partly Cloudy
2:53 PM 84.0 °F 88.4 °F 70.0 °F 63% 30.08 in 10.0 mi ESE 15.0 mph - N/A   Partly Cloudy
3:53 PM 84.0 °F 88.4 °F 70.0 °F 63% 30.06 in 10.0 mi SE 16.1 mph - N/A   Clear
4:53 PM 82.9 °F 88.0 °F 72.0 °F 69% 30.05 in 10.0 mi SE 12.7 mph - N/A   Clear
5:53 PM 81.0 °F 86.2 °F 73.9 °F 79% 30.05 in 10.0 mi SSE 9.2 mph - N/A   Mostly Cloudy
6:53 PM 80.1 °F 84.5 °F 73.9 °F 81% 30.06 in 10.0 mi South 8.1 mph - N/A   Partly Cloudy
7:53 PM 80.1 °F 84.5 °F 73.9 °F 81% 30.06 in 10.0 mi SSE 8.1 mph - N/A   Clear
8:53 PM 80.1 °F 85.1 °F 75.0 °F 85% 30.09 in 10.0 mi South 6.9 mph - N/A   Mostly Cloudy
9:53 PM 79.0 °F - 75.0 °F 88% 30.08 in 10.0 mi SSE 6.9 mph - N/A   Clear
10:53 PM 79.0 °F - 75.0 °F 88% 30.08 in 10.0 mi SSE 5.8 mph - N/A   Clear
11:53 PM 79.0 °F - 75.0 °F 88% 30.08 in 10.0 mi SSE 5.8 mph - N/A   Clear